Year,Month,Day,Hour,Minute,Value (Times are PST for temperature in C)
2008,10,28,00,00,6.80
2008,10,28,00,01,6.80
2008,10,28,00,02,6.80
2008,10,28,00,03,6.80
2008,10,28,00,04,6.80
2008,10,28,00,05,6.80
2008,10,28,00,06,6.80
2008,10,28,00,07,6.80
2008,10,28,00,08,6.80
2008,10,28,00,09,6.80
2008,10,28,00,10,6.80
2008,10,28,00,11,6.80
2008,10,28,00,12,6.80
2008,10,28,00,13,6.80
2008,10,28,00,14,6.80
2008,10,28,00,15,6.70
2008,10,28,00,16,6.70
2008,10,28,00,17,6.70
2008,10,28,00,18,6.70
2008,10,28,00,19,6.60
2008,10,28,00,20,6.60
2008,10,28,00,21,6.60
2008,10,28,00,22,6.60
2008,10,28,00,23,6.60
2008,10,28,00,24,6.50
2008,10,28,00,25,6.50
2008,10,28,00,26,6.50
2008,10,28,00,27,6.40
2008,10,28,00,28,6.40
2008,10,28,00,29,6.40
2008,10,28,00,30,6.40
2008,10,28,00,31,6.40
2008,10,28,00,32,6.40
2008,10,28,00,33,6.40
2008,10,28,00,34,6.40
2008,10,28,00,35,6.50
2008,10,28,00,36,6.50
2008,10,28,00,37,6.50
2008,10,28,00,38,6.60
2008,10,28,00,39,6.60
2008,10,28,00,40,6.60
2008,10,28,00,41,6.60
2008,10,28,00,42,6.70
2008,10,28,00,43,6.70
2008,10,28,00,44,6.80
2008,10,28,00,45,6.90
2008,10,28,00,46,6.90
2008,10,28,00,47,7.00
2008,10,28,00,48,7.10
2008,10,28,00,49,7.20
2008,10,28,00,50,7.20
2008,10,28,00,51,7.20
2008,10,28,00,52,7.30
2008,10,28,00,53,7.30
2008,10,28,00,54,7.30
2008,10,28,00,55,7.40
2008,10,28,00,56,7.40
2008,10,28,00,57,7.40
2008,10,28,00,58,7.40
2008,10,28,00,59,7.40
2008,10,28,01,00,7.40
2008,10,28,01,01,7.40
2008,10,28,01,02,7.40
2008,10,28,01,03,7.50
2008,10,28,01,04,7.50
2008,10,28,01,05,7.50
2008,10,28,01,06,7.50
2008,10,28,01,07,7.50
2008,10,28,01,08,7.40
2008,10,28,01,09,7.40
2008,10,28,01,10,7.40
2008,10,28,01,11,7.40
2008,10,28,01,12,7.40
2008,10,28,01,13,7.40
2008,10,28,01,14,7.40
2008,10,28,01,15,7.50
2008,10,28,01,16,7.50
2008,10,28,01,17,7.50
2008,10,28,01,18,7.50
2008,10,28,01,19,7.50
2008,10,28,01,20,7.50
2008,10,28,01,21,7.50
2008,10,28,01,22,7.50
2008,10,28,01,23,7.50
2008,10,28,01,24,7.40
2008,10,28,01,25,7.40
2008,10,28,01,26,7.40
2008,10,28,01,27,7.40
2008,10,28,01,28,7.40
2008,10,28,01,29,7.40
2008,10,28,01,30,7.40
2008,10,28,01,31,7.40
2008,10,28,01,32,7.40
2008,10,28,01,33,7.40
2008,10,28,01,34,7.40
2008,10,28,01,35,7.40
2008,10,28,01,36,7.50
2008,10,28,01,37,7.50
2008,10,28,01,38,7.60
2008,10,28,01,39,7.60
2008,10,28,01,40,7.70
2008,10,28,01,41,7.70
2008,10,28,01,42,7.70
2008,10,28,01,43,7.70
2008,10,28,01,44,7.70
2008,10,28,01,45,7.70
2008,10,28,01,46,7.70
2008,10,28,01,47,7.70
2008,10,28,01,48,7.60
2008,10,28,01,49,7.60
2008,10,28,01,50,7.50
2008,10,28,01,51,7.50
2008,10,28,01,52,7.40
2008,10,28,01,53,7.40
2008,10,28,01,54,7.40
2008,10,28,01,55,7.30
2008,10,28,01,56,7.30
2008,10,28,01,57,7.20
2008,10,28,01,58,7.20
2008,10,28,01,59,7.20
2008,10,28,02,00,7.20
2008,10,28,02,01,7.20
2008,10,28,02,02,7.20
2008,10,28,02,03,7.20
2008,10,28,02,04,7.20
2008,10,28,02,05,7.10
2008,10,28,02,06,7.10
2008,10,28,02,07,7.10
2008,10,28,02,08,7.10
2008,10,28,02,09,7.10
2008,10,28,02,10,7.10
2008,10,28,02,11,7.10
2008,10,28,02,12,7.10
2008,10,28,02,13,7.10
2008,10,28,02,14,7.10
2008,10,28,02,15,7.10
2008,10,28,02,16,7.10
2008,10,28,02,17,7.10
2008,10,28,02,18,7.10
2008,10,28,02,19,7.10
2008,10,28,02,20,7.00
2008,10,28,02,21,7.00
2008,10,28,02,22,7.00
2008,10,28,02,23,6.90
2008,10,28,02,24,6.90
2008,10,28,02,25,6.90
2008,10,28,02,26,6.80
2008,10,28,02,27,6.80
2008,10,28,02,28,6.70
2008,10,28,02,29,6.70
2008,10,28,02,30,6.60
2008,10,28,02,31,6.50
2008,10,28,02,32,6.40
2008,10,28,02,33,6.40
2008,10,28,02,34,6.30
2008,10,28,02,35,6.30
2008,10,28,02,36,6.20
2008,10,28,02,37,6.20
2008,10,28,02,38,6.10
2008,10,28,02,39,6.10
2008,10,28,02,40,6.10
2008,10,28,02,41,6.00
2008,10,28,02,42,6.00
2008,10,28,02,43,6.00
2008,10,28,02,44,5.90
2008,10,28,02,45,5.90
2008,10,28,02,46,5.90
2008,10,28,02,47,5.90
2008,10,28,02,48,5.90
2008,10,28,02,49,5.90
2008,10,28,02,50,6.00
2008,10,28,02,51,6.00
2008,10,28,02,52,6.00
2008,10,28,02,53,6.00
2008,10,28,02,54,6.00
2008,10,28,02,55,6.00
2008,10,28,02,56,5.90
2008,10,28,02,57,5.90
2008,10,28,02,58,5.80
2008,10,28,02,59,5.80
2008,10,28,03,00,5.70
2008,10,28,03,01,5.60
2008,10,28,03,02,5.50
2008,10,28,03,03,5.40
2008,10,28,03,04,5.30
2008,10,28,03,05,5.30
2008,10,28,03,06,5.30
2008,10,28,03,07,5.20
2008,10,28,03,08,5.20
2008,10,28,03,09,5.20
2008,10,28,03,10,5.20
2008,10,28,03,11,5.10
2008,10,28,03,12,5.10
2008,10,28,03,13,5.10
2008,10,28,03,14,5.10
2008,10,28,03,15,5.10
2008,10,28,03,16,5.10
2008,10,28,03,17,5.10
2008,10,28,03,18,5.10
2008,10,28,03,19,5.20
2008,10,28,03,20,5.20
2008,10,28,03,21,5.20
2008,10,28,03,22,5.20
2008,10,28,03,23,5.20
2008,10,28,03,24,5.20
2008,10,28,03,25,5.20
2008,10,28,03,26,5.20
2008,10,28,03,27,5.30
2008,10,28,03,28,5.30
2008,10,28,03,29,5.30
2008,10,28,03,30,5.30
2008,10,28,03,31,5.30
2008,10,28,03,32,5.30
2008,10,28,03,33,5.40
2008,10,28,03,34,5.40
2008,10,28,03,35,5.40
2008,10,28,03,36,5.40
2008,10,28,03,37,5.50
2008,10,28,03,38,5.40
2008,10,28,03,39,5.40
2008,10,28,03,40,5.40
2008,10,28,03,41,5.40
2008,10,28,03,42,5.40
2008,10,28,03,43,5.40
2008,10,28,03,44,5.40
2008,10,28,03,45,5.40
2008,10,28,03,46,5.30
2008,10,28,03,47,5.30
2008,10,28,03,48,5.30
2008,10,28,03,49,5.30
2008,10,28,03,50,5.30
2008,10,28,03,51,5.20
2008,10,28,03,52,5.20
2008,10,28,03,53,5.20
2008,10,28,03,54,5.20
2008,10,28,03,55,5.20
2008,10,28,03,56,5.20
2008,10,28,03,57,5.20
2008,10,28,03,58,5.20
2008,10,28,03,59,5.20
2008,10,28,04,00,5.20
2008,10,28,04,01,5.20
2008,10,28,04,02,5.20
2008,10,28,04,03,5.20
2008,10,28,04,04,5.20
2008,10,28,04,05,5.20
2008,10,28,04,06,5.30
2008,10,28,04,07,5.30
2008,10,28,04,08,5.30
2008,10,28,04,09,5.40
2008,10,28,04,10,5.40
2008,10,28,04,11,5.40
2008,10,28,04,12,5.40
2008,10,28,04,13,5.40
2008,10,28,04,14,5.40
2008,10,28,04,15,5.50
2008,10,28,04,16,5.50
2008,10,28,04,17,5.50
2008,10,28,04,18,5.50
2008,10,28,04,19,5.60
2008,10,28,04,20,5.60
2008,10,28,04,21,5.60
2008,10,28,04,22,5.60
2008,10,28,04,23,5.60
2008,10,28,04,24,5.60
2008,10,28,04,25,5.60
2008,10,28,04,26,5.60
2008,10,28,04,27,5.60
2008,10,28,04,28,5.60
2008,10,28,04,29,5.60
2008,10,28,04,30,5.60
2008,10,28,04,31,5.60
2008,10,28,04,32,5.60
2008,10,28,04,33,5.60
2008,10,28,04,34,5.60
2008,10,28,04,35,5.60
2008,10,28,04,36,5.60
2008,10,28,04,37,5.60
2008,10,28,04,38,5.60
2008,10,28,04,39,5.60
2008,10,28,04,40,5.50
2008,10,28,04,41,5.50
2008,10,28,04,42,5.50
2008,10,28,04,43,5.40
2008,10,28,04,44,5.40
2008,10,28,04,45,5.40
2008,10,28,04,46,5.40
2008,10,28,04,47,5.40
2008,10,28,04,48,5.50
2008,10,28,04,49,5.50
2008,10,28,04,50,5.50
2008,10,28,04,51,5.60
2008,10,28,04,52,5.60
2008,10,28,04,53,5.60
2008,10,28,04,54,5.60
2008,10,28,04,55,5.70
2008,10,28,04,56,5.70
2008,10,28,04,57,5.70
2008,10,28,04,58,5.70
2008,10,28,04,59,5.70
2008,10,28,05,00,5.70
2008,10,28,05,01,5.70
2008,10,28,05,02,5.70
2008,10,28,05,03,5.70
2008,10,28,05,04,5.70
2008,10,28,05,05,5.70
2008,10,28,05,06,5.70
2008,10,28,05,07,5.70
2008,10,28,05,08,5.70
2008,10,28,05,09,5.80
2008,10,28,05,10,5.80
2008,10,28,05,11,5.80
2008,10,28,05,12,5.90
2008,10,28,05,13,5.90
2008,10,28,05,14,5.90
2008,10,28,05,15,5.90
2008,10,28,05,16,5.90
2008,10,28,05,17,5.90
2008,10,28,05,18,5.90
2008,10,28,05,19,5.90
2008,10,28,05,20,5.80
2008,10,28,05,21,5.80
2008,10,28,05,22,5.80
2008,10,28,05,23,5.70
2008,10,28,05,24,5.70
2008,10,28,05,25,5.70
2008,10,28,05,26,5.60
2008,10,28,05,27,5.50
2008,10,28,05,28,5.50
2008,10,28,05,29,5.40
2008,10,28,05,30,5.30
2008,10,28,05,31,5.20
2008,10,28,05,32,5.20
2008,10,28,05,33,5.10
2008,10,28,05,34,5.10
2008,10,28,05,35,5.00
2008,10,28,05,36,4.90
2008,10,28,05,37,4.80
2008,10,28,05,38,4.70
2008,10,28,05,39,4.70
2008,10,28,05,40,4.60
2008,10,28,05,41,4.60
2008,10,28,05,42,4.50
2008,10,28,05,43,4.50
2008,10,28,05,44,4.50
2008,10,28,05,45,4.40
2008,10,28,05,46,4.30
2008,10,28,05,47,4.20
2008,10,28,05,48,4.20
2008,10,28,05,49,4.20
2008,10,28,05,50,4.10
2008,10,28,05,51,4.10
2008,10,28,05,52,4.10
2008,10,28,05,53,4.10
2008,10,28,05,54,4.10
2008,10,28,05,55,4.10
2008,10,28,05,56,4.10
2008,10,28,05,57,4.00
2008,10,28,05,58,4.00
2008,10,28,05,59,4.00
2008,10,28,06,00,4.00
2008,10,28,06,01,4.00
2008,10,28,06,02,4.00
2008,10,28,06,03,4.10
2008,10,28,06,04,4.10
2008,10,28,06,05,4.20
2008,10,28,06,06,4.20
2008,10,28,06,07,4.20
2008,10,28,06,08,4.30
2008,10,28,06,09,4.30
2008,10,28,06,10,4.30
2008,10,28,06,11,4.40
2008,10,28,06,12,4.40
2008,10,28,06,13,4.50
2008,10,28,06,14,4.50
2008,10,28,06,15,4.50
2008,10,28,06,16,4.50
2008,10,28,06,17,4.50
2008,10,28,06,18,4.60
2008,10,28,06,19,4.60
2008,10,28,06,20,4.50
2008,10,28,06,21,4.50
2008,10,28,06,22,4.50
2008,10,28,06,23,4.40
2008,10,28,06,24,4.40
2008,10,28,06,25,4.30
2008,10,28,06,26,4.30
2008,10,28,06,27,4.30
2008,10,28,06,28,4.30
2008,10,28,06,29,4.30
2008,10,28,06,30,4.30
2008,10,28,06,31,4.30
2008,10,28,06,32,4.30
2008,10,28,06,33,4.30
2008,10,28,06,34,4.30
2008,10,28,06,35,4.20
2008,10,28,06,36,4.20
2008,10,28,06,37,4.20
2008,10,28,06,38,4.10
2008,10,28,06,39,4.10
2008,10,28,06,40,4.10
2008,10,28,06,41,4.10
2008,10,28,06,42,4.00
2008,10,28,06,43,4.00
2008,10,28,06,44,3.90
2008,10,28,06,45,3.90
2008,10,28,06,46,3.80
2008,10,28,06,47,3.80
2008,10,28,06,48,3.80
2008,10,28,06,49,3.80
2008,10,28,06,50,3.70
2008,10,28,06,51,3.70
2008,10,28,06,52,3.70
2008,10,28,06,53,3.70
2008,10,28,06,54,3.70
2008,10,28,06,55,3.70
2008,10,28,06,56,3.70
2008,10,28,06,57,3.60
2008,10,28,06,58,3.60
2008,10,28,06,59,3.60
2008,10,28,07,00,3.60
2008,10,28,07,01,3.60
2008,10,28,07,02,3.60
2008,10,28,07,03,3.70
2008,10,28,07,04,3.70
2008,10,28,07,05,3.70
2008,10,28,07,06,3.80
2008,10,28,07,07,3.80
2008,10,28,07,08,3.90
2008,10,28,07,09,3.90
2008,10,28,07,10,3.90
2008,10,28,07,11,4.00
2008,10,28,07,12,4.00
2008,10,28,07,13,4.10
2008,10,28,07,14,4.10
2008,10,28,07,15,4.10
2008,10,28,07,16,4.10
2008,10,28,07,17,4.10
2008,10,28,07,18,4.10
2008,10,28,07,19,4.20
2008,10,28,07,20,4.20
2008,10,28,07,21,4.20
2008,10,28,07,22,4.20
2008,10,28,07,23,4.10
2008,10,28,07,24,4.10
2008,10,28,07,25,4.10
2008,10,28,07,26,4.10
2008,10,28,07,27,4.10
2008,10,28,07,28,4.10
2008,10,28,07,29,4.00
2008,10,28,07,30,4.00
2008,10,28,07,31,4.00
2008,10,28,07,32,4.10
2008,10,28,07,33,4.10
2008,10,28,07,34,4.10
2008,10,28,07,35,4.10
2008,10,28,07,36,4.10
2008,10,28,07,37,4.10
2008,10,28,07,38,4.10
2008,10,28,07,39,4.10
2008,10,28,07,40,4.20
2008,10,28,07,41,4.20
2008,10,28,07,42,4.20
2008,10,28,07,43,4.20
2008,10,28,07,44,4.30
2008,10,28,07,45,4.30
2008,10,28,07,46,4.40
2008,10,28,07,47,4.40
2008,10,28,07,48,4.40
2008,10,28,07,49,4.50
2008,10,28,07,50,4.50
2008,10,28,07,51,4.60
2008,10,28,07,52,4.60
2008,10,28,07,53,4.60
2008,10,28,07,54,4.60
2008,10,28,07,55,4.60
2008,10,28,07,56,4.60
2008,10,28,07,57,4.60
2008,10,28,07,58,4.60
2008,10,28,07,59,4.60
2008,10,28,08,00,4.60
2008,10,28,08,01,4.60
2008,10,28,08,02,4.60
2008,10,28,08,03,4.50
2008,10,28,08,04,4.50
2008,10,28,08,05,4.60
2008,10,28,08,06,4.60
2008,10,28,08,07,4.60
2008,10,28,08,08,4.60
2008,10,28,08,09,4.70
2008,10,28,08,10,4.70
2008,10,28,08,11,4.80
2008,10,28,08,12,4.80
2008,10,28,08,13,4.80
2008,10,28,08,14,4.80
2008,10,28,08,15,4.90
2008,10,28,08,16,4.90
2008,10,28,08,17,4.90
2008,10,28,08,18,4.90
2008,10,28,08,19,4.90
2008,10,28,08,20,4.90
2008,10,28,08,21,4.90
2008,10,28,08,22,4.90
2008,10,28,08,23,4.90
2008,10,28,08,24,4.90
2008,10,28,08,25,5.00
2008,10,28,08,26,5.00
2008,10,28,08,27,5.10
2008,10,28,08,28,5.10
2008,10,28,08,29,5.10
2008,10,28,08,30,5.10
2008,10,28,08,31,5.10
2008,10,28,08,32,5.10
2008,10,28,08,33,5.00
2008,10,28,08,34,4.90
2008,10,28,08,35,4.80
2008,10,28,08,36,4.80
2008,10,28,08,37,4.70
2008,10,28,08,38,4.70
2008,10,28,08,39,4.70
2008,10,28,08,40,4.70
2008,10,28,08,41,4.70
2008,10,28,08,42,4.70
2008,10,28,08,43,4.80
2008,10,28,08,44,4.80
2008,10,28,08,45,4.90
2008,10,28,08,46,4.90
2008,10,28,08,47,5.00
2008,10,28,08,48,5.00
2008,10,28,08,49,5.10
2008,10,28,08,50,5.10
2008,10,28,08,51,5.20
2008,10,28,08,52,5.30
2008,10,28,08,53,5.40
2008,10,28,08,54,5.40
2008,10,28,08,55,5.50
2008,10,28,08,56,5.60
2008,10,28,08,57,5.60
2008,10,28,08,58,5.70
2008,10,28,08,59,5.80
2008,10,28,09,00,5.80
2008,10,28,09,01,5.90
2008,10,28,09,02,6.00
2008,10,28,09,03,6.10
2008,10,28,09,04,6.20
2008,10,28,09,05,6.20
2008,10,28,09,06,6.20
2008,10,28,09,07,6.20
2008,10,28,09,08,6.30
2008,10,28,09,09,6.30
2008,10,28,09,10,6.30
2008,10,28,09,11,6.30
2008,10,28,09,12,6.30
2008,10,28,09,13,6.30
2008,10,28,09,14,6.30
2008,10,28,09,15,6.30
2008,10,28,09,16,6.30
2008,10,28,09,17,6.30
2008,10,28,09,18,6.30
2008,10,28,09,19,6.30
2008,10,28,09,20,6.30
2008,10,28,09,21,6.30
2008,10,28,09,22,6.30
2008,10,28,09,23,6.30
2008,10,28,09,24,6.30
2008,10,28,09,25,6.30
2008,10,28,09,26,6.30
2008,10,28,09,27,6.40
2008,10,28,09,28,6.40
2008,10,28,09,29,6.40
2008,10,28,09,30,6.40
2008,10,28,09,31,6.40
2008,10,28,09,32,6.50
2008,10,28,09,33,6.50
2008,10,28,09,34,6.60
2008,10,28,09,35,6.60
2008,10,28,09,36,6.70
2008,10,28,09,37,6.70
2008,10,28,09,38,6.80
2008,10,28,09,39,6.80
2008,10,28,09,40,6.80
2008,10,28,09,41,6.90
2008,10,28,09,42,6.90
2008,10,28,09,43,7.00
2008,10,28,09,44,7.00
2008,10,28,09,45,7.10
2008,10,28,09,46,7.10
2008,10,28,09,47,7.20
2008,10,28,09,48,7.20
2008,10,28,09,49,7.30
2008,10,28,09,50,7.40
2008,10,28,09,51,7.40
2008,10,28,09,52,7.50
2008,10,28,09,53,7.50
2008,10,28,09,54,7.60
2008,10,28,09,55,7.70
2008,10,28,09,56,7.70
2008,10,28,09,57,7.70
2008,10,28,09,58,7.80
2008,10,28,09,59,7.90
2008,10,28,10,00,7.90
2008,10,28,10,01,8.00
2008,10,28,10,02,8.10
2008,10,28,10,03,8.10
2008,10,28,10,04,8.20
2008,10,28,10,05,8.30
2008,10,28,10,06,8.40
2008,10,28,10,07,8.40
2008,10,28,10,08,8.50
2008,10,28,10,09,8.60
2008,10,28,10,10,8.60
2008,10,28,10,11,8.60
2008,10,28,10,12,8.70
2008,10,28,10,13,8.70
2008,10,28,10,14,8.70
2008,10,28,10,15,8.70
2008,10,28,10,16,8.70
2008,10,28,10,17,8.70
2008,10,28,10,18,8.70
2008,10,28,10,19,8.70
2008,10,28,10,20,8.70
2008,10,28,10,21,8.70
2008,10,28,10,22,8.70
2008,10,28,10,23,8.70
2008,10,28,10,24,8.70
2008,10,28,10,25,8.70
2008,10,28,10,26,8.80
2008,10,28,10,27,8.80
2008,10,28,10,28,8.80
2008,10,28,10,29,8.90
2008,10,28,10,30,8.90
2008,10,28,10,31,8.90
2008,10,28,10,32,9.00
2008,10,28,10,33,9.10
2008,10,28,10,34,9.10
2008,10,28,10,35,9.20
2008,10,28,10,36,9.20
2008,10,28,10,37,9.30
2008,10,28,10,38,9.30
2008,10,28,10,39,9.30
2008,10,28,10,40,9.40
2008,10,28,10,41,9.50
2008,10,28,10,42,9.50
2008,10,28,10,43,9.60
2008,10,28,10,44,9.60
2008,10,28,10,45,9.60
2008,10,28,10,46,9.60
2008,10,28,10,47,9.60
2008,10,28,10,48,9.60
2008,10,28,10,49,9.60
2008,10,28,10,50,9.60
2008,10,28,10,51,9.60
2008,10,28,10,52,9.70
2008,10,28,10,53,9.70
2008,10,28,10,54,9.60
2008,10,28,10,55,9.60
2008,10,28,10,56,9.60
2008,10,28,10,57,9.60
2008,10,28,10,58,9.50
2008,10,28,10,59,9.50
2008,10,28,11,00,9.50
2008,10,28,11,01,9.60
2008,10,28,11,02,9.60
2008,10,28,11,03,9.60
2008,10,28,11,04,9.70
2008,10,28,11,05,9.70
2008,10,28,11,06,9.70
2008,10,28,11,07,9.70
2008,10,28,11,08,9.70
2008,10,28,11,09,9.70
2008,10,28,11,10,9.70
2008,10,28,11,11,9.80
2008,10,28,11,12,9.80
2008,10,28,11,13,9.80
2008,10,28,11,14,9.80
2008,10,28,11,15,9.80
2008,10,28,11,16,9.80
2008,10,28,11,17,9.80
2008,10,28,11,18,9.90
2008,10,28,11,19,9.90
2008,10,28,11,20,9.90
2008,10,28,11,21,9.90
2008,10,28,11,22,9.90
2008,10,28,11,23,9.90
2008,10,28,11,24,9.90
2008,10,28,11,25,9.90
2008,10,28,11,26,10.00
2008,10,28,11,27,10.00
2008,10,28,11,28,10.10
2008,10,28,11,29,10.10
2008,10,28,11,30,10.20
2008,10,28,11,31,10.20
2008,10,28,11,32,10.20
2008,10,28,11,33,10.20
2008,10,28,11,34,10.20
2008,10,28,11,35,10.20
2008,10,28,11,36,10.30
2008,10,28,11,37,10.30
2008,10,28,11,38,10.30
2008,10,28,11,39,10.40
2008,10,28,11,40,10.40
2008,10,28,11,41,10.40
2008,10,28,11,42,10.40
2008,10,28,11,43,10.40
2008,10,28,11,44,10.40
2008,10,28,11,45,10.40
2008,10,28,11,46,10.40
2008,10,28,11,47,10.30
2008,10,28,11,48,10.30
2008,10,28,11,49,10.30
2008,10,28,11,50,10.30
2008,10,28,11,51,10.30
2008,10,28,11,52,10.30
2008,10,28,11,53,10.40
2008,10,28,11,54,10.40
2008,10,28,11,55,10.50
2008,10,28,11,56,10.50
2008,10,28,11,57,10.50
2008,10,28,11,58,10.60
2008,10,28,11,59,10.60
2008,10,28,12,00,10.60
2008,10,28,12,01,10.60
2008,10,28,12,02,10.60
2008,10,28,12,03,10.60
2008,10,28,12,04,10.70
2008,10,28,12,05,10.70
2008,10,28,12,06,10.70
2008,10,28,12,07,10.70
2008,10,28,12,08,10.80
2008,10,28,12,09,10.80
2008,10,28,12,10,10.80
2008,10,28,12,11,10.90
2008,10,28,12,12,11.00
2008,10,28,12,13,11.00
2008,10,28,12,14,11.10
2008,10,28,12,15,11.10
2008,10,28,12,16,11.10
2008,10,28,12,17,11.10
2008,10,28,12,18,11.10
2008,10,28,12,19,11.10
2008,10,28,12,20,11.10
2008,10,28,12,21,11.00
2008,10,28,12,22,11.00
2008,10,28,12,23,11.00
2008,10,28,12,24,11.00
2008,10,28,12,25,11.00
2008,10,28,12,26,11.00
2008,10,28,12,27,11.00
2008,10,28,12,28,11.00
2008,10,28,12,29,11.00
2008,10,28,12,30,10.90
2008,10,28,12,31,10.90
2008,10,28,12,32,10.90
2008,10,28,12,33,10.90
2008,10,28,12,34,10.80
2008,10,28,12,35,10.80
2008,10,28,12,36,10.80
2008,10,28,12,37,10.80
2008,10,28,12,38,10.80
2008,10,28,12,39,10.80
2008,10,28,12,40,10.80
2008,10,28,12,41,10.80
2008,10,28,12,42,10.80
2008,10,28,12,43,10.80
2008,10,28,12,44,10.80
2008,10,28,12,45,10.80
2008,10,28,12,46,10.80
2008,10,28,12,47,10.80
2008,10,28,12,48,10.80
2008,10,28,12,49,10.80
2008,10,28,12,50,10.90
2008,10,28,12,51,11.00
2008,10,28,12,52,11.00
2008,10,28,12,53,11.10
2008,10,28,12,54,11.10
2008,10,28,12,55,11.10
2008,10,28,12,56,11.00
2008,10,28,12,57,11.00
2008,10,28,12,58,11.10
2008,10,28,12,59,11.10
2008,10,28,13,00,11.10
2008,10,28,13,01,11.10
2008,10,28,13,02,11.10
2008,10,28,13,03,11.20
2008,10,28,13,04,11.20
2008,10,28,13,05,11.20
2008,10,28,13,06,11.10
2008,10,28,13,07,11.10
2008,10,28,13,08,11.10
2008,10,28,13,09,11.20
2008,10,28,13,10,11.30
2008,10,28,13,11,11.30
2008,10,28,13,12,11.20
2008,10,28,13,13,11.20
2008,10,28,13,14,11.20
2008,10,28,13,15,11.30
2008,10,28,13,16,11.30
2008,10,28,13,17,11.30
2008,10,28,13,18,11.40
2008,10,28,13,19,11.40
2008,10,28,13,20,11.30
2008,10,28,13,21,11.30
2008,10,28,13,22,11.30
2008,10,28,13,23,11.30
2008,10,28,13,24,11.30
2008,10,28,13,25,11.30
2008,10,28,13,26,11.30
2008,10,28,13,27,11.20
2008,10,28,13,28,11.20
2008,10,28,13,29,11.20
2008,10,28,13,30,11.30
2008,10,28,13,31,11.30
2008,10,28,13,32,11.40
2008,10,28,13,33,11.40
2008,10,28,13,34,11.50
2008,10,28,13,35,11.60
2008,10,28,13,36,11.60
2008,10,28,13,37,11.70
2008,10,28,13,38,11.70
2008,10,28,13,39,11.70
2008,10,28,13,40,11.70
2008,10,28,13,41,11.70
2008,10,28,13,42,11.70
2008,10,28,13,43,11.80
2008,10,28,13,44,11.80
2008,10,28,13,45,11.80
2008,10,28,13,46,11.80
2008,10,28,13,47,11.80
2008,10,28,13,48,11.80
2008,10,28,13,49,11.90
2008,10,28,13,50,11.90
2008,10,28,13,51,11.90
2008,10,28,13,52,12.00
2008,10,28,13,53,12.00
2008,10,28,13,54,12.00
2008,10,28,13,55,11.90
2008,10,28,13,56,11.90
2008,10,28,13,57,12.00
2008,10,28,13,58,12.00
2008,10,28,13,59,12.00
2008,10,28,14,00,12.10
2008,10,28,14,01,12.10
2008,10,28,14,02,12.00
2008,10,28,14,03,12.10
2008,10,28,14,04,12.10
2008,10,28,14,05,12.10
2008,10,28,14,06,12.10
2008,10,28,14,07,12.10
2008,10,28,14,08,12.10
2008,10,28,14,09,12.00
2008,10,28,14,10,12.00
2008,10,28,14,11,11.90
2008,10,28,14,12,11.90
2008,10,28,14,13,12.00
2008,10,28,14,14,12.10
2008,10,28,14,15,12.20
2008,10,28,14,16,12.20
2008,10,28,14,17,12.20
2008,10,28,14,18,12.20
2008,10,28,14,19,12.20
2008,10,28,14,20,12.20
2008,10,28,14,21,12.30
2008,10,28,14,22,12.30
2008,10,28,14,23,12.30
2008,10,28,14,24,12.40
2008,10,28,14,25,12.50
2008,10,28,14,26,12.50
2008,10,28,14,27,12.60
2008,10,28,14,28,12.70
2008,10,28,14,29,12.70
2008,10,28,14,30,12.70
2008,10,28,14,31,12.70
2008,10,28,14,32,12.70
2008,10,28,14,33,12.80
2008,10,28,14,34,12.80
2008,10,28,14,35,12.90
2008,10,28,14,36,12.90
2008,10,28,14,37,13.00
2008,10,28,14,38,13.00
2008,10,28,14,39,13.10
2008,10,28,14,40,13.10
2008,10,28,14,41,13.10
2008,10,28,14,42,13.00
2008,10,28,14,43,12.90
2008,10,28,14,44,12.80
2008,10,28,14,45,12.70
2008,10,28,14,46,12.50
2008,10,28,14,47,12.40
2008,10,28,14,48,12.30
2008,10,28,14,49,12.30
2008,10,28,14,50,12.30
2008,10,28,14,51,12.30
2008,10,28,14,52,12.30
2008,10,28,14,53,12.30
2008,10,28,14,54,12.20
2008,10,28,14,55,12.20
2008,10,28,14,56,12.20
2008,10,28,14,57,12.20
2008,10,28,14,58,12.30
2008,10,28,14,59,12.20
2008,10,28,15,00,12.20
2008,10,28,15,01,12.20
2008,10,28,15,02,12.30
2008,10,28,15,03,12.30
2008,10,28,15,04,12.30
2008,10,28,15,05,12.40
2008,10,28,15,06,12.40
2008,10,28,15,07,12.50
2008,10,28,15,08,12.60
2008,10,28,15,09,12.50
2008,10,28,15,10,12.40
2008,10,28,15,11,12.30
2008,10,28,15,12,12.20
2008,10,28,15,13,12.10
2008,10,28,15,14,12.10
2008,10,28,15,15,12.00
2008,10,28,15,16,12.00
2008,10,28,15,17,11.90
2008,10,28,15,18,11.90
2008,10,28,15,19,11.90
2008,10,28,15,20,11.90
2008,10,28,15,21,11.90
2008,10,28,15,22,12.00
2008,10,28,15,23,12.10
2008,10,28,15,24,12.10
2008,10,28,15,25,12.10
2008,10,28,15,26,12.00
2008,10,28,15,27,12.00
2008,10,28,15,28,12.00
2008,10,28,15,29,12.10
2008,10,28,15,30,12.20
2008,10,28,15,31,12.20
2008,10,28,15,32,12.20
2008,10,28,15,33,12.20
2008,10,28,15,34,12.20
2008,10,28,15,35,12.20
2008,10,28,15,36,12.20
2008,10,28,15,37,12.20
2008,10,28,15,38,12.30
2008,10,28,15,39,12.30
2008,10,28,15,40,12.30
2008,10,28,15,41,12.30
2008,10,28,15,42,12.30
2008,10,28,15,43,12.30
2008,10,28,15,44,12.30
2008,10,28,15,45,12.20
2008,10,28,15,46,12.20
2008,10,28,15,47,12.20
2008,10,28,15,48,12.20
2008,10,28,15,49,12.20
2008,10,28,15,50,12.30
2008,10,28,15,51,12.30
2008,10,28,15,52,12.20
2008,10,28,15,53,12.20
2008,10,28,15,54,12.20
2008,10,28,15,55,12.20
2008,10,28,15,56,12.30
2008,10,28,15,57,12.40
2008,10,28,15,58,12.40
2008,10,28,15,59,12.50
2008,10,28,16,00,12.60
2008,10,28,16,01,12.70
2008,10,28,16,02,12.70
2008,10,28,16,03,12.70
2008,10,28,16,04,12.70
2008,10,28,16,05,12.70
2008,10,28,16,06,12.60
2008,10,28,16,07,12.60
2008,10,28,16,08,12.60
2008,10,28,16,09,12.60
2008,10,28,16,10,12.60
2008,10,28,16,11,12.60
2008,10,28,16,12,12.50
2008,10,28,16,13,12.50
2008,10,28,16,14,12.50
2008,10,28,16,15,12.50
2008,10,28,16,16,12.60
2008,10,28,16,17,12.70
2008,10,28,16,18,12.80
2008,10,28,16,19,12.90
2008,10,28,16,20,12.90
2008,10,28,16,21,13.00
2008,10,28,16,22,13.10
2008,10,28,16,23,13.10
2008,10,28,16,24,13.10
2008,10,28,16,25,13.10
2008,10,28,16,26,13.20
2008,10,28,16,27,13.10
2008,10,28,16,28,13.10
2008,10,28,16,29,13.10
2008,10,28,16,30,13.10
2008,10,28,16,31,13.10
2008,10,28,16,32,13.10
2008,10,28,16,33,13.20
2008,10,28,16,34,13.10
2008,10,28,16,35,13.10
2008,10,28,16,36,13.20
2008,10,28,16,37,13.20
2008,10,28,16,38,13.20
2008,10,28,16,39,13.20
2008,10,28,16,40,13.10
2008,10,28,16,41,12.90
2008,10,28,16,42,12.80
2008,10,28,16,43,12.60
2008,10,28,16,44,12.50
2008,10,28,16,45,12.40
2008,10,28,16,46,12.40
2008,10,28,16,47,12.40
2008,10,28,16,48,12.40
2008,10,28,16,49,12.40
2008,10,28,16,50,12.40
2008,10,28,16,51,12.40
2008,10,28,16,52,12.30
2008,10,28,16,53,12.30
2008,10,28,16,54,12.30
2008,10,28,16,55,12.30
2008,10,28,16,56,12.30
2008,10,28,16,57,12.30
2008,10,28,16,58,12.20
2008,10,28,16,59,12.20
2008,10,28,17,00,12.20
2008,10,28,17,01,12.20
2008,10,28,17,02,12.10
2008,10,28,17,03,12.00
2008,10,28,17,04,11.90
2008,10,28,17,05,11.90
2008,10,28,17,06,11.90
2008,10,28,17,07,11.80
2008,10,28,17,08,11.80
2008,10,28,17,09,11.70
2008,10,28,17,10,11.70
2008,10,28,17,11,11.60
2008,10,28,17,12,11.50
2008,10,28,17,13,11.50
2008,10,28,17,14,11.40
2008,10,28,17,15,11.40
2008,10,28,17,16,11.30
2008,10,28,17,17,11.30
2008,10,28,17,18,11.30
2008,10,28,17,19,11.30
2008,10,28,17,20,11.30
2008,10,28,17,21,11.30
2008,10,28,17,22,11.20
2008,10,28,17,23,11.20
2008,10,28,17,24,11.20
2008,10,28,17,25,11.20
2008,10,28,17,26,11.20
2008,10,28,17,27,11.10
2008,10,28,17,28,11.10
2008,10,28,17,29,11.10
2008,10,28,17,30,11.10
2008,10,28,17,31,11.00
2008,10,28,17,32,11.00
2008,10,28,17,33,11.00
2008,10,28,17,34,10.90
2008,10,28,17,35,10.90
2008,10,28,17,36,10.90
2008,10,28,17,37,10.90
2008,10,28,17,38,10.90
2008,10,28,17,39,10.80
2008,10,28,17,40,10.80
2008,10,28,17,41,10.80
2008,10,28,17,42,10.80
2008,10,28,17,43,10.80
2008,10,28,17,44,10.80
2008,10,28,17,45,10.80
2008,10,28,17,46,10.70
2008,10,28,17,47,10.70
2008,10,28,17,48,10.70
2008,10,28,17,49,10.70